Content
SEND FEEDBACK

Daily
Averages
Monthly
Summary
United States of America

FULTON, NEW YORK


Home > North America > United States > New York
Elevation: 142 meters     Latitude: 43 21N     Longitude: 076 23W

WEATHER
 
SELECT A DAY
Number of Records: 213,862;   Date Range: 5/22/97 - 10/24/14
 
SHARE

PRINT THIS DATA

[ ← Previous Day ]
WEATHER ALMANAC - 31 JANUARY, 2013
[ Next Day → ]
[ °F ]   °C
Weather ElementAverageHighLow
Temperature2.7 °C12 °C (2:21 am)-3.3 °C (11:54 pm)
Dewpoint-4 °C11 °C (2:21 am)-12.8 °C (4:54 pm)
Humidity63.3 %94 % (2:21 am)37 % (4:54 pm)
Barometer992.2 hPa1004.4 hPa (11:54 pm)981.4 hPa (2:39 am)
Wind Speed36.2 km/h51.8 km/h (12:54 pm)
Wind Gust76 km/h (2:17 pm)
Weather ElementAverage
Visibility11.7 km
Wind DirectionWSW (251.3 °)

Weather ElementTotal
Precipitation17.27 mm
Heating Degree Days14 (Base 18.3)
Averaged from 38 records on 31 January, 2013
WEATHER CONDITIONS BREAKOUT
WIND DIRECTION BREAKOUT
WEATHER BY HOUR - 31 JANUARY, 2013
[ °F ]   °C
Local TimeTemperatureDewpointHumidityBarometerVisibilityWind DirectionWind SpeedGust SpeedPrecipitationEventsConditions
1:54 AM11.1 °C10 °C93 %982.1 hPa9.7 kmSouth (170°)11.1 km/h1.52 mmRainLight Rain
2:21 AM12 °C11 °C94 %981.7 hPa16.1 kmSouth (180°)11.1 km/h0.76 mmRainLight Rain
2:39 AM12 °C10 °C88 %981.4 hPa3.2 kmWSW (240°)24.1 km/h33.3 km/h3.05 mmRainHeavy Rain
2:44 AM12 °C10 °C88 %981.4 hPa4.8 kmWSW (240°)18.5 km/h33.3 km/h3.3 mmRainRain
2:54 AM11.1 °C8.9 °C86 %982.1 hPa9.7 kmWest (280°)44.4 km/h68.6 km/h3.81 mmRainLight Rain
3:16 AM8 °C5 °C81 %983.4 hPa12.9 kmWSW (250°)37 km/h64.9 km/h0.76 mmRainLight Rain
3:54 AM6.1 °C3.3 °C82 %983.7 hPa9.7 kmWest (260°)35.2 km/h53.8 km/h2.03 mmRainRain
4:04 AM6 °C2 °C76 %984.1 hPa9.7 kmWSW (250°)33.3 km/h61.2 km/h0.51 mmRainRain
4:26 AM5 °C2 °C81 %984.1 hPa16.1 kmWSW (250°)25.9 km/h46.3 km/h0.76 mmRainLight Rain
4:54 AM5 °C0 °C70 %984.8 hPa16.1 kmWSW (250°)35.2 km/h57.5 km/h0.76 mmRainLight Rain
5:33 AM4 °C-1 °C70 %985.1 hPa16.1 kmWest (260°)40.7 km/h55.5 km/h0 mmRainLight Rain
5:54 AM4.4 °C-0.6 °C70 %985.4 hPa16.1 kmWSW (250°)38.9 km/h55.5 km/h0 mmRainLight Rain
6:54 AM3.3 °C-2.2 °C68 %987.5 hPa16.1 kmWest (260°)29.6 km/h59.2 km/h0 mmOvercast
7:27 AM3 °C-3 °C65 %988.5 hPa16.1 kmWSW (250°)40.7 km/h64.9 km/h0 mmMostly Cloudy
7:54 AM2.8 °C-3.9 °C62 %989.8 hPa14.5 kmWSW (250°)50.1 km/h72.3 km/h0 mmOvercast
8:54 AM2.2 °C-6.1 °C55 %991.5 hPa16.1 kmWSW (250°)42.6 km/h57.5 km/h0 mmOvercast
9:54 AM1.7 °C-5.6 °C59 %992.9 hPa4 kmWSW (250°)31.5 km/h66.6 km/h0 mmSnowLight Snow
9:58 AM1 °C-5 °C65 %992.9 hPa1.6 kmWSW (250°)42.6 km/h66.6 km/h0 mmSnowLight Snow
10:04 AM-1 °C-4 °C80 %992.9 hPa1.6 kmWSW (250°)37 km/h55.5 km/h0 mmSnowLight Snow
10:09 AM0 °C-5 °C69 %992.9 hPa3.2 kmWSW (250°)35.2 km/h51.8 km/h0 mmSnowLight Snow
10:16 AM-1 °C-6 °C69 %993.2 hPa14.5 kmWSW (250°)33.3 km/h50.1 km/h0 mmOvercast
10:54 AM1.7 °C-8.3 °C48 %993.9 hPa16.1 kmWest (260°)46.3 km/h66.6 km/h0 mmOvercast
11:54 AM0 °C-7.8 °C56 %994.2 hPa12.9 kmWSW (250°)38.9 km/h50.1 km/h0 mmSnowLight Snow
12:54 PM0.6 °C-8.3 °C52 %995.6 hPa9.7 kmWest (270°)51.8 km/h74 km/h0 mmSnowLight Snow
1:45 PM-1 °C-7 °C64 %996.3 hPa2.9 kmWest (260°)44.4 km/h61.2 km/h0 mmSnowLight Snow
1:54 PM-0.6 °C-7.2 °C61 %996.6 hPa6.4 kmWest (270°)46.3 km/h62.9 km/h0 mmSnowLight Snow
2:17 PM0 °C-8 °C55 %997 hPa2.9 kmWest (260°)40.7 km/h76 km/h0 mmSnowLight Snow
2:24 PM1 °C-9 °C48 %997 hPa4.8 kmWSW (250°)44.4 km/h62.9 km/h0 mmSnowLight Snow
2:54 PM0 °C-10.6 °C45 %997.6 hPa16.1 kmWSW (250°)44.4 km/h64.9 km/h0 mmOvercast
3:54 PM1.1 °C-11.1 °C40 %998.6 hPa16.1 kmWest (260°)38.9 km/h64.9 km/h0 mmScattered Clouds
4:54 PM0.6 °C-12.8 °C37 %999.7 hPa16.1 kmWest (270°)37 km/h61.2 km/hMostly Cloudy
5:54 PM-0.6 °C-12.2 °C42 %1001 hPa16.1 kmWest (270°)35.2 km/h62.9 km/hMostly Cloudy
6:54 PM-1.7 °C-12.2 °C45 %1001.7 hPa16.1 kmWest (260°)37 km/h50.1 km/hOvercast
7:54 PM-2.2 °C-11.1 °C51 %1002.4 hPa16.1 kmWest (270°)35.2 km/h46.3 km/hOvercast
8:54 PM-0.6 °C-11.7 °C43 %1003 hPa16.1 kmWest (260°)38.9 km/h59.2 km/hOvercast
9:54 PM-0.6 °C-12.2 °C42 %1003.7 hPa16.1 kmWSW (240°)37 km/h50.1 km/hOvercast
10:54 PM-1.7 °C-10.6 °C51 %1004.1 hPa16.1 kmWest (260°)31.5 km/h44.4 km/hOvercast
11:54 PM-3.3 °C-11.7 °C53 %1004.4 hPa16.1 kmWSW (250°)27.8 km/h42.6 km/hOvercast
Hourly data recorded from KFZY, located 0 kilometers away from Fulton, New York







STORIES FROM OUR PARTNERS